New York, NY

3:14 AM EST on December 06, 2019 (GMT -0500)
La Guardia

Weather History for KLGA - October, 2019

Change the Weather History Date:

Friday, October 25, 2019

  Actual Average Record
Temperature  
Mean Temperature 60 °F 55 °F  
Max Temperature 66 °F 62 °F 78 °F (2001)
Min Temperature 53 °F 48 °F 37 °F (1962)
Degree Days  
Heating Degree Days 5 10  
Month to date heating degree days 119 170  
Since 1 July heating degree days 122 205  
Cooling Degree Days 0 0  
Month to date cooling degree days 29 20  
Year to date cooling degree days 1484 1210  
Growing Degree Days 10 (Base 50)    
Moisture  
Dew Point 48 °F    
Average Humidity 65    
Maximum Humidity 78    
Minimum Humidity 48    
Precipitation  
Precipitation 0.00 in 0.12 in 1.52 in (1958)
Month to date precipitation 3.64 3.09  
Year to date precipitation 40.12 37.07  
Snow  
Snow 0.00 in 0.00 in - ()
Month to date snowfall 0.0 0.0  
Since 1 July snowfall 0.0 0.0  
Snow Depth 0.00 in    
Sea Level Pressure  
Sea Level Pressure 30.24 in    
Wind  
Wind Speed 4 mph ()    
Max Wind Speed 14 mph    
Max Gust Speed 18 mph    
Visibility 10.0 miles    
Events      
T = Trace of Precipitation, MM = Missing Value Source: Averaged Metar Reports

Daily Weather History Graph

Daily Weather History Graph

Search for Another Location

Airport or City:

Astronomy

Oct. 25, 2019 Rise Set
Actual Time 7:17 AM EDT 6:00 PM EDT
Civil Twilight 6:49 AM EDT 6:28 PM EDT
Nautical Twilight 6:17 AM EDT 7:01 PM EDT
Astronomical Twilight 5:45 AM EDT 7:32 PM EDT
Moon 3:55 AM EDT (10/25) 5:02 PM EDT (10/25)
Length of Visible Light 11h 39m
Length of Day
10h 43m
Waning Crescent, 9% of the Moon is Illuminated
Oct 25
Waning Crescent
Oct 27
New
Nov 4
First Quarter
Nov 12
Full
Nov 19
Last Quarter

Hourly Weather History & Observations

Time (EDT) Temp. Dew Point Humidity Pressure Visibility Wind Dir Wind Speed Gust Speed Precip Events Conditions
12:51 AM 57.0 °F 41.0 °F 55% 30.30 in 10.0 mi SW 5.8 mph - N/A   Partly Cloudy
1:51 AM 55.9 °F 43.0 °F 62% 30.29 in 10.0 mi SW 6.9 mph - N/A   Partly Cloudy
2:51 AM 55.9 °F 43.0 °F 62% 30.30 in 10.0 mi Calm Calm - N/A   Partly Cloudy
3:51 AM 55.9 °F 43.0 °F 62% 30.30 in 10.0 mi NW 4.6 mph - N/A   Partly Cloudy
4:51 AM 55.0 °F 42.1 °F 62% 30.31 in 10.0 mi Calm Calm - N/A   Partly Cloudy
5:51 AM 54.0 °F 43.0 °F 66% 30.30 in 10.0 mi Calm Calm - N/A   Partly Cloudy
6:51 AM 54.0 °F 44.1 °F 69% 30.30 in 10.0 mi South 5.8 mph - N/A   Mostly Cloudy
7:51 AM 54.0 °F 45.0 °F 72% 30.31 in 10.0 mi SSW 3.5 mph - N/A   Mostly Cloudy
8:51 AM 55.9 °F 45.0 °F 67% 30.31 in 10.0 mi South 5.8 mph - N/A   Overcast
9:51 AM 57.9 °F 46.0 °F 65% 30.32 in 10.0 mi Calm Calm - N/A   Overcast
11:51 AM 60.1 °F 48.0 °F 64% 30.29 in 10.0 mi ENE 5.8 mph - N/A   Overcast
12:51 PM 62.1 °F 48.0 °F 60% 30.26 in 10.0 mi NE 4.6 mph - N/A   Overcast
1:51 PM 64.9 °F 48.9 °F 56% 30.22 in 10.0 mi Calm Calm - N/A   Overcast
2:51 PM 66.9 °F 46.9 °F 49% 30.20 in 10.0 mi WSW 5.8 mph - N/A   Mostly Cloudy
3:51 PM 64.9 °F 50.0 °F 58% 30.19 in 10.0 mi South 9.2 mph - N/A   Mostly Cloudy
4:51 PM 63.0 °F 51.1 °F 65% 30.19 in 10.0 mi SSE 12.7 mph - N/A   Mostly Cloudy
5:51 PM 62.1 °F 54.0 °F 75% 30.17 in 10.0 mi South 8.1 mph - N/A   Mostly Cloudy
6:51 PM 62.1 °F 54.0 °F 75% 30.17 in 10.0 mi South 6.9 mph - N/A   Mostly Cloudy
7:51 PM 61.0 °F 54.0 °F 78% 30.17 in 10.0 mi South 6.9 mph - N/A   Mostly Cloudy
8:51 PM 62.1 °F 52.0 °F 70% 30.17 in 10.0 mi SSW 8.1 mph - N/A   Mostly Cloudy
9:51 PM 63.0 °F 52.0 °F 67% 30.18 in 10.0 mi WSW 8.1 mph - N/A   Overcast
10:51 PM 62.1 °F 51.1 °F 67% 30.17 in 10.0 mi SW 9.2 mph - N/A   Overcast
11:51 PM 61.0 °F 51.1 °F 70% 30.17 in 10.0 mi SSW 8.1 mph - N/A   Overcast